Flag for Trinidad and Tobago Weather past 2 weeks in Scarborough, Trinidad and Tobago

Now
79 °F

Passing clouds.


Feels Like: 82 °F
Forecast: 78 / 88 °F
Wind: No wind

Location: Crown Pt./ Scarborou

Current Time: Oct 21, 2014 at 2:08:35 AM

Latest Report: Oct 21, 2014 at 1:00 AM


Visibility: N/A

Pressure: 29.89 "Hg

Humidity: 84%

Dew point: 73 °F

Location of ScarboroughLocation

Historic Weather in Scarborough — Graph

°F

Scarborough temperature yesterday

Maximum temperature yesterday: 90 °F (at 10:00 AM)
Minimum temperature yesterday: 79 °F (at 3:00 AM)
Average temperature yesterday: 85 °F

Past Weeks' High & Low Weather Summary

 TemperatureHumidityPressure
High90 °F (Oct 12, 2:00 PM)89% (Oct 7, 2:00 AM)30.01 "Hg (Oct 7, 2:00 AM)
Low75 °F (Oct 17, 3:00 AM)55% (Oct 20, 3:00 PM)29.77 "Hg (Oct 9, 4:00 PM)
Average83 °F75%29.90 "Hg
* Reported Oct 6 1:00 AM — Oct 21 1:00 AM, Scarborough, Weather by CustomWeather, © 2014

Note: Actual official high and low records may vary slightly from our data, if they occured in-between our weather recording intervals... More about our weather records

Advertising

Scarborough weather history for previous 24 hours

 ConditionsComfort  
Time TempWeatherWind HumidityBarometerVisibility
1:00 AM
Oct 21
79 °FPassing clouds.No wind84%29.89 "HgN/A
11:00 PM
Oct 20
81 °FPassing clouds.No wind74%29.92 "HgN/A
10:00 PM81 °FPassing clouds.No wind74%29.92 "HgN/A
9:00 PM81 °FPassing clouds.No wind79%29.92 "HgN/A
8:00 PM82 °FPassing clouds.No wind84%29.89 "HgN/A
7:00 PM82 °FPassing clouds.No wind74%29.86 "HgN/A
6:00 PM82 °FPassing clouds.No wind74%29.86 "HgN/A
5:00 PM86 °FPassing clouds.13 mph66%29.86 "HgN/A
4:00 PM88 °FPassing clouds.12 mph62%29.86 "HgN/A
3:00 PM90 °FPassing clouds.13 mph55%29.86 "HgN/A
2:00 PM90 °FPassing clouds.13 mph63%29.89 "HgN/A
1:00 PM88 °FPassing clouds.13 mph62%29.89 "HgN/A
12:00 PM90 °FPassing clouds.13 mph63%29.92 "HgN/A
11:00 AM90 °FPassing clouds.16 mph59%29.95 "HgN/A
10:00 AM90 °FPassing clouds.14 mph59%29.98 "HgN/A
9:00 AM88 °FPassing clouds.13 mph66%29.95 "HgN/A
8:00 AM86 °FPassing clouds.7 mph70%29.95 "HgN/A
7:00 AM82 °FScattered showers. Passing clouds.3 mph74%29.92 "HgN/A
6:00 AM79 °FPassing clouds.5 mph79%29.89 "HgN/A
3:00 AM79 °FPassing clouds.No wind84%29.89 "HgN/A
Weather by CustomWeather, © 2014

See weather overviewHow to use our weather pages